Location: 5810 Zion Rd, Cleves, OH 45002, USA
(39.1922°N, 84.7113°W)
Time: 20:48:30
(UTC-05:00)

Vanguard 3 - Pass Details

Date: 22 December 2019
Orbit: 507 x 3263 km, 33.4° (Epoch: 25 January)

Event Time Altitude Azimuth Distance (km) Brightness Sun altitude
Rises 07:59:31 0° 264° (W) 3,028 9.6 -0.1°
Reaches altitude 10° 08:01:31 10° 258° (WSW) 2,298 9.1 0.2°
Maximum altitude 08:06:39 49° 184° (S) 1,329 8.6 1.1°
Drops below altitude 10° 08:15:24 10° 114° (ESE) 3,871 12.8 2.5°
Sets 08:19:45 0° 110° (ESE) 5,345 13.3 3.2°
